Location: Chittendens Corners
(41.2320°N, 81.4940°W)
Time: 17:19:13
(UTC+00:00)

Cosmos 1825 - Pass Details

Date: 29 October 2020
Orbit: 502 x 508 km, 82.5° (Epoch: 24 November)

Event Time Altitude Azimuth Distance (km) Brightness Sun altitude
Rises 23:30:42 0° 4° (N) 2,620 5.7 -13.0°
Reaches altitude 10° 23:33:05 10° 17° (NNE) 1,728 4.6 -13.4°
Maximum altitude 23:36:19 26° 76° (ENE) 1,024 3.1 -14.0°
Enters shadow 23:36:53 25° 92° (E) 1,053 3.1 -14.1°
